GW4041 Weather Reports


Display with metric or nautical units.
time (UTC)temp
F
wind
direction
speed
MPH
gust
MPH
rain 1hr
in
rain 24hr
in
rain mn
in
humidity
%
barometer
mb
20260505163554 81 159 1.0 2.0 0.00 0.00 0.00 46 1009.9
20260505163051 82 98 3.0 7.0 0.00 0.00 0.00 45 1010.0
20260505162544 82 195 1.0 2.0 0.00 0.00 0.00 44 1009.9
20260505162041 82 140 2.0 3.0 0.00 0.00 0.00 44 1010.2
20260505161538 83 86 4.0 8.0 0.00 0.00 0.00 42 1010.0
20260505161035 81 92 2.0 3.0 0.00 0.00 0.00 45 1010.0
20260505160533 81 82 3.0 3.0 0.00 0.00 0.00 43 1010.4
20260505153009 80 2 3.0 3.0 0.00 0.00 0.00 46 1010.6
20260505152506 79 351 3.0 5.0 0.00 0.00 0.00 46 1010.4
20260505152002 79 126 2.0 3.0 0.00 0.00 0.00 46 1010.4
20260505151457 79 139 2.0 5.0 0.00 0.00 0.00 49 1010.7
20260505150955 78 278 0.0 5.0 0.00 0.00 0.00 49 1010.5
20260505150451 78 341 1.0 5.0 0.00 0.00 0.00 49 1010.5
20260505140422 74 229 2.0 3.0 0.00 0.00 0.00 53 1011.2
20260505124835 68 357 1.0 5.0 0.00 0.00 0.00 65 1011.2
20260505124332 68 155 3.0 3.0 0.00 0.00 0.00 64 1011.0
20260505123828 67 77 1.0 2.0 0.00 0.00 0.00 66 1011.1
20260505123324 67 4 1.0 2.0 0.00 0.00 0.00 67 1011.1
20260505122821 66 169 1.0 2.0 0.00 0.00 0.00 70 1011.1
20260505122318 65 200 1.0 1.0 0.00 0.00 0.00 69 1011.0
20260505121815 64 179 1.0 2.0 0.00 0.00 0.00 71 1011.2
20260505121312 64 211 2.0 3.0 0.00 0.00 0.00 72 1011.4
20260505120808 63 105 1.0 1.0 0.00 0.00 0.00 72 1011.4
20260505120304 63 50 0.0 1.0 0.00 0.00 0.00 74 1011.3
20260505115802 63 72 1.0 2.0 0.00 0.00 0.00 75 1011.2
20260505115300 62 65 0.0 1.0 0.00 0.00 0.00 75 1011.3
20260505114757 61 70 0.0 1.0 0.00 0.00 0.00 79 1011.1
20260505114254 60 7 0.0 1.0 0.00 0.00 0.00 82 1011.2
20260505113750 60 17 0.0 0.0 0.00 0.00 0.00 81 1011.3
20260505113247 59 348 0.0 0.0 0.00 0.00 0.00 83 1011.1
20260505112743 59 2 0.0 0.0 0.00 0.00 0.00 85 1010.8
20260505112241 58 24 0.0 0.0 0.00 0.00 0.00 85 1011.1
20260505111740 57 344 0.0 0.0 0.00 0.00 0.00 88 1011.0
20260505111236 56 344 0.0 0.0 0.00 0.00 0.00 88 1011.1
20260505110732 56 345 0.0 0.0 0.00 0.00 0.00 88 1010.9
20260505110230 56 342 0.0 0.0 0.00 0.00 0.00 88 1011.2
20260505102205 55 322 0.0 1.0 0.00 0.00 0.00 89 1011.0
20260505101704 55 315 0.0 1.0 0.00 0.00 0.00 88 1011.0
20260505101200 55 316 0.0 1.0 0.00 0.00 0.00 88 1010.9
20260505100656 55 316 1.0 1.0 0.00 0.00 0.00 88 1011.1
20260505100153 55 315 2.0 3.0 0.00 0.00 0.00 87 1011.2
20260505095649 55 234 1.0 1.0 0.00 0.00 0.00 88 1010.7
20260505095147 55 315 2.0 2.0 0.00 0.00 0.00 87 1011.1
20260505094642 55 296 1.0 2.0 0.00 0.00 0.00 87 1010.9
20260505094139 55 316 1.0 1.0 0.00 0.00 0.00 89 1010.9
20260505093635 54 316 0.0 0.0 0.00 0.00 0.00 88 1010.8
20260505093133 54 337 0.0 0.0 0.00 0.00 0.00 89 1010.7
20260505092630 54 320 0.0 0.0 0.00 0.00 0.00 89 1010.4
20260505092129 54 340 0.0 0.0 0.00 0.00 0.00 90 1010.3
20260505091625 54 350 0.0 0.0 0.00 0.00 0.00 90 1010.2
20260505091123 55 335 0.0 0.0 0.00 0.00 0.00 89 1010.2
20260505090620 55 83 0.0 0.0 0.00 0.00 0.00 88 1010.3
20260505090119 55 347 0.0 1.0 0.00 0.00 0.00 88 1010.0
20260505085616 56 343 0.0 0.0 0.00 0.00 0.00 86 1010.2
20260505085114 56 343 0.0 1.0 0.00 0.00 0.00 85 1010.1
20260505084611 56 329 0.0 0.0 0.00 0.00 0.00 86 1010.1
20260505084110 56 339 0.0 0.0 0.00 0.00 0.00 86 1010.3
20260505083607 56 324 0.0 0.0 0.00 0.00 0.00 87 1010.4
20260505083103 56 341 0.0 0.0 0.00 0.00 0.00 87 1010.3
20260505082559 56 7 0.0 1.0 0.00 0.00 0.00 87 1010.2
20260505082056 56 4 0.0 1.0 0.00 0.00 0.00 87 1010.1
20260505081552 56 339 0.0 1.0 0.00 0.00 0.00 87 1010.2
20260505081050 56 337 0.0 1.0 0.00 0.00 0.00 85 1010.3
20260505080545 56 271 1.0 1.0 0.00 0.00 0.00 85 1010.1
20260505080043 56 322 1.0 2.0 0.00 0.00 0.00 83 1010.2
20260505075538 55 17 1.0 2.0 0.00 0.00 0.00 83 1010.1
20260505075035 55 352 0.0 1.0 0.00 0.00 0.00 83 1010.0
20260505074532 55 20 0.0 0.0 0.00 0.00 0.00 84 1010.4
20260505074030 55 32 0.0 0.0 0.00 0.00 0.00 84 1010.3
20260505073527 55 43 0.0 1.0 0.00 0.00 0.00 83 1010.4
20260505073025 55 28 0.0 0.0 0.00 0.00 0.00 83 1010.0
20260505072520 55 349 0.0 0.0 0.00 0.00 0.00 82 1010.1
20260505072017 55 347 0.0 0.0 0.00 0.00 0.00 82 1010.1
20260505071513 56 346 0.0 0.0 0.00 0.00 0.00 82 1010.1
20260505071011 56 331 0.0 0.0 0.00 0.00 0.00 81 1010.0
20260505070508 56 350 0.0 0.0 0.00 0.00 0.00 81 1010.2
20260505070004 56 341 0.0 0.0 0.00 0.00 0.00 81 1010.1
20260505065500 56 328 1.0 2.0 0.00 0.00 0.00 79 1009.8
20260505064956 56 342 1.0 1.0 0.00 0.00 0.00 81 1010.0
20260505064453 56 331 0.0 0.0 0.00 0.00 0.00 81 1010.0
20260505063952 55 338 0.0 1.0 0.00 0.00 0.00 82 1010.0
20260505063448 55 341 0.0 1.0 0.00 0.00 0.00 82 1010.0
20260505062945 56 343 0.0 1.0 0.00 0.00 0.00 82 1009.9
20260505062442 56 36 1.0 2.0 0.00 0.00 0.00 81 1010.3
20260505061938 56 75 1.0 1.0 0.00 0.00 0.00 82 1010.2
20260505061437 55 56 0.0 2.0 0.00 0.00 0.00 82 1010.3
20260505060934 55 50 0.0 1.0 0.00 0.00 0.00 83 1010.0
20260505060431 55 352 0.0 1.0 0.00 0.00 0.00 83 1010.0
20260505055927 55 12 0.0 1.0 0.00 0.00 0.00 82 1010.1
20260505055423 55 20 0.0 0.0 0.00 0.00 0.00 82 1010.2
20260505054920 55 80 0.0 1.0 0.00 0.00 0.00 82 1010.1
20260505054417 56 249 0.0 1.0 0.00 0.00 0.00 82 1010.1
20260505053915 55 207 0.0 1.0 0.00 0.00 0.00 82 1010.2
20260505053412 56 24 0.0 1.0 0.00 0.00 0.00 81 1010.5
20260505052909 56 82 1.0 2.0 0.00 0.00 0.00 81 1010.2
20260505052406 56 21 0.0 2.0 0.00 0.00 0.00 80 1010.2
20260505051903 56 348 0.0 1.0 0.00 0.00 0.00 80 1010.4
20260505051400 56 90 0.0 1.0 0.00 0.00 0.00 80 1010.5
20260505050858 56 5 0.0 1.0 0.00 0.00 0.00 80 1010.4
20260505050357 56 55 0.0 1.0 0.00 0.00 0.00 80 1010.2
20260505041324 57 164 2.0 2.0 0.00 0.00 0.00 75 1010.3
20260505040821 58 100 1.0 3.0 0.00 0.00 0.00 74 1010.4
20260505040319 58 152 2.0 2.0 0.00 0.00 0.00 72 1010.3
20260505035815 58 136 1.0 1.0 0.00 0.00 0.00 72 1010.3
20260505035311 58 83 5.0 6.0 0.00 0.00 0.00 72 1010.5
20260505034808 58 102 1.0 1.0 0.00 0.00 0.00 71 1010.3
20260505034300 58 108 2.0 2.0 0.00 0.00 0.00 70 1010.3
20260505033756 58 107 2.0 2.0 0.00 0.00 0.00 70 1010.5
20260505033254 59 103 0.0 2.0 0.00 0.00 0.00 69 1010.4
20260505032752 58 119 1.0 2.0 0.00 0.00 0.00 68 1010.4
20260505032247 59 93 2.0 2.0 0.00 0.00 0.00 67 1010.5
20260505031745 59 119 1.0 2.0 0.00 0.00 0.00 66 1010.5
20260505031241 59 138 1.0 2.0 0.00 0.00 0.00 65 1010.3
20260505030738 59 175 1.0 2.0 0.00 0.00 0.00 64 1010.7
20260505030234 60 59 1.0 1.0 0.00 0.00 0.00 63 1010.5
20260505025730 59 58 1.0 1.0 0.00 0.00 0.00 63 1010.5
20260505025229 59 150 2.0 2.0 0.00 0.00 0.00 63 1010.5
20260505024727 59 245 0.0 0.0 0.00 0.00 0.00 64 1010.6
20260505024224 59 323 0.0 0.0 0.00 0.00 0.00 62 1010.5
20260505023721 60 11 0.0 0.0 0.00 0.00 0.00 61 1010.5
20260505023218 60 272 0.0 1.0 0.00 0.00 0.00 61 1010.5
20260505022715 60 71 0.0 1.0 0.00 0.00 0.00 59 1010.9
20260505022212 60 13 0.0 1.0 0.00 0.00 0.00 59 1010.6
20260505021708 60 35 0.0 1.0 0.00 0.00 0.00 59 1010.7
20260505021206 60 92 0.0 0.0 0.00 0.00 0.00 59 1010.8
20260505020701 60 1 0.0 0.0 0.00 0.00 0.00 59 1010.9
20260505020151 60 141 0.0 0.0 0.00 0.00 0.00 58 1010.9
20260505015649 60 121 0.0 0.0 0.00 0.00 0.00 59 1010.7
20260505015145 59 85 0.0 0.0 0.00 0.00 0.00 59 1010.8
20260505014642 58 185 0.0 0.0 0.00 0.00 0.00 63 1010.6
20260505014139 57 325 0.0 0.0 0.00 0.00 0.00 64 1010.4
20260505013637 57 325 0.0 0.0 0.00 0.00 0.00 64 1010.3
20260505013134 57 339 0.0 0.0 0.00 0.00 0.00 63 1010.5
20260505012632 57 334 0.0 0.0 0.00 0.00 0.00 62 1010.5
20260505012128 57 340 0.0 0.0 0.00 0.00 0.00 63 1010.5
20260505011624 58 343 0.0 0.0 0.00 0.00 0.00 63 1010.6
20260505011122 58 334 0.0 0.0 0.00 0.00 0.00 61 1010.3
20260505010616 58 334 0.0 0.0 0.00 0.00 0.00 61 1010.1
20260505010114 59 333 0.0 0.0 0.00 0.00 0.00 59 1010.0
20260505005609 59 351 0.0 0.0 0.00 0.00 0.00 59 1010.1
20260505005101 59 351 0.0 0.0 0.00 0.00 0.00 58 1009.9
20260505004558 60 352 0.0 0.0 0.00 0.00 0.00 57 1010.1
20260505004055 60 326 0.0 0.0 0.00 0.00 0.00 56 1009.8
20260505003552 60 319 0.0 0.0 0.00 0.00 0.00 56 1010.0
20260505003050 61 340 0.0 0.0 0.00 0.00 0.00 54 1009.8
20260505002549 61 342 0.0 0.0 0.00 0.00 0.00 54 1009.8
20260505002043 61 331 0.0 0.0 0.00 0.00 0.00 54 1009.8
20260505001540 62 334 0.0 0.0 0.00 0.00 0.00 54 1010.0
20260505001037 62 344 0.0 0.0 0.00 0.00 0.00 53 1009.7
20260505000535 63 352 0.0 0.0 0.00 0.00 0.00 53 1009.9
20260505000032 63 343 0.0 0.0 0.00 0.00 0.00 51 1009.6
20260504235529 64 330 0.0 0.0 0.00 0.00 0.00 51 1009.8
20260504235025 64 348 0.0 0.0 0.00 0.00 0.00 51 1009.6
20260504234523 64 353 0.0 0.0 0.00 0.00 0.00 48 1009.6
20260504234020 65 297 0.0 1.0 0.00 0.00 0.00 49 1009.3
20260504233515 65 348 0.0 0.0 0.00 0.00 0.00 49 1009.4
20260504233012 66 311 0.0 0.0 0.00 0.00 0.00 47 1009.4
20260504232509 66 5 0.0 0.0 0.00 0.00 0.00 47 1009.4
20260504232007 67 331 0.0 0.0 0.00 0.00 0.00 47 1009.4
20260504231503 67 308 0.0 1.0 0.00 0.00 0.00 44 1009.4
20260504230959 68 342 0.0 1.0 0.00 0.00 0.00 45 1009.1
20260504230455 68 118 0.0 0.0 0.00 0.00 0.00 44 1009.3
20260504225955 68 339 1.0 3.0 0.00 0.00 0.00 43 1009.1
20260504225451 68 62 1.0 2.0 0.00 0.00 0.00 44 1009.3
20260504224948 68 181 3.0 6.0 0.00 0.00 0.00 45 1009.2
20260504224444 68 94 1.0 2.0 0.00 0.00 0.00 44 1009.1
20260504223942 68 305 0.0 1.0 0.00 0.00 0.00 44 1008.9
20260504223438 69 321 0.0 1.0 0.00 0.00 0.00 43 1009.1
20260504222933 69 223 0.0 3.0 0.00 0.00 0.00 43 1009.3
20260504222431 69 0 0.0 2.0 0.00 0.00 0.00 42 1009.3
20260504221929 69 285 0.0 0.0 0.00 0.00 0.00 43 1009.0
20260504221425 69 349 1.0 2.0 0.00 0.00 0.00 42 1009.3
20260504220923 69 192 3.0 3.0 0.00 0.00 0.00 41 1009.2
20260504220419 70 240 2.0 3.0 0.00 0.00 0.00 42 1009.2
20260504215916 70 196 3.0 5.0 0.00 0.00 0.00 41 1009.2
20260504215413 70 44 0.0 2.0 0.00 0.00 0.00 41 1009.4
20260504214909 70 318 0.0 2.0 0.00 0.00 0.00 41 1009.3
20260504214406 70 209 1.0 1.0 0.00 0.00 0.00 41 1009.4
20260504213903 70 339 0.0 1.0 0.00 0.00 0.00 43 1009.4
20260504213358 70 263 1.0 2.0 0.00 0.00 0.00 42 1009.3
20260504212855 71 311 2.0 7.0 0.00 0.00 0.00 41 1009.4
20260504212346 71 1 1.0 2.0 0.00 0.00 0.00 39 1009.3
20260504211844 71 31 0.0 2.0 0.00 0.00 0.00 38 1009.4
20260504211340 71 346 1.0 2.0 0.00 0.00 0.00 40 1009.5
20260504210838 71 81 0.0 3.0 0.00 0.00 0.00 40 1009.3
20260504210334 71 206 3.0 9.0 0.00 0.00 0.00 39 1009.6
20260504205832 71 249 0.0 3.0 0.00 0.00 0.00 40 1009.7
20260504205329 71 309 2.0 5.0 0.00 0.00 0.00 39 1009.8
20260504204827 71 109 2.0 6.0 0.00 0.00 0.00 38 1009.6
20260504204326 71 133 1.0 3.0 0.00 0.00 0.00 38 1009.6
20260504203825 71 12 4.0 6.0 0.00 0.00 0.00 39 1009.5
20260504203321 71 232 1.0 3.0 0.00 0.00 0.00 38 1009.3
20260504202817 71 17 1.0 5.0 0.00 0.00 0.00 38 1009.2
20260504202314 72 258 2.0 3.0 0.00 0.00 0.00 38 1009.5
20260504201811 71 341 2.0 3.0 0.00 0.00 0.00 42 1009.3
20260504201308 71 209 2.0 5.0 0.00 0.00 0.00 40 1009.4
20260504200806 72 358 2.0 7.0 0.00 0.00 0.00 38 1009.4
20260504200302 71 349 1.0 5.0 0.00 0.00 0.00 38 1009.6
20260504195758 71 326 1.0 2.0 0.00 0.00 0.00 39 1009.7
20260504195254 71 352 3.0 6.0 0.00 0.00 0.00 38 1009.6
20260504194751 72 81 2.0 7.0 0.00 0.00 0.00 38 1009.6
20260504194247 72 152 4.0 5.0 0.00 0.00 0.00 36 1009.9
20260504193743 71 242 2.0 9.0 0.00 0.00 0.00 36 1009.9
20260504193241 73 206 1.0 5.0 0.00 0.00 0.00 37 1009.7
20260504192739 72 117 5.0 7.0 0.00 0.00 0.00 36 1009.8
20260504192237 72 264 3.0 6.0 0.00 0.00 0.00 38 1009.7
20260504191736 72 331 2.0 3.0 0.00 0.00 0.00 38 1009.9
20260504191232 72 7 2.0 6.0 0.00 0.00 0.00 37 1010.0
20260504190727 72 302 1.0 3.0 0.00 0.00 0.00 36 1010.0
20260504190224 72 331 1.0 2.0 0.00 0.00 0.00 39 1010.0
20260504185721 72 216 0.0 2.0 0.00 0.00 0.00 38 1010.3
20260504185218 73 113 3.0 6.0 0.00 0.00 0.00 36 1010.3
20260504184714 72 290 2.0 3.0 0.00 0.00 0.00 36 1010.4
20260504184210 72 92 1.0 3.0 0.00 0.00 0.00 40 1010.7
20260504183706 73 97 3.0 6.0 0.00 0.00 0.00 38 1010.6
20260504183203 73 206 1.0 2.0 0.00 0.00 0.00 36 1010.5
20260504182701 72 327 4.0 5.0 0.00 0.00 0.00 36 1010.4
20260504182158 73 226 1.0 6.0 0.00 0.00 0.00 39 1010.6
20260504181655 71 66 1.0 5.0 0.00 0.00 0.00 39 1010.8
20260504181153 72 204 2.0 7.0 0.00 0.00 0.00 36 1010.9
20260504180652 71 243 3.0 6.0 0.00 0.00 0.00 38 1011.0
20260504180150 71 250 2.0 3.0 0.00 0.00 0.00 39 1010.9
20260504175647 72 213 2.0 5.0 0.00 0.00 0.00 37 1011.1
20260504175143 72 46 2.0 3.0 0.00 0.00 0.00 37 1010.8
20260504174642 72 338 0.0 3.0 0.00 0.00 0.00 37 1011.2
20260504174138 72 117 1.0 3.0 0.00 0.00 0.00 36 1011.3
20260504173635 72 213 1.0 3.0 0.00 0.00 0.00 37 1011.3
20260504173133 71 103 2.0 3.0 0.00 0.00 0.00 41 1011.5
20260504172629 71 218 1.0 3.0 0.00 0.00 0.00 38 1011.5
20260504172125 70 200 2.0 6.0 0.00 0.00 0.00 38 1011.3
20260504171622 71 220 3.0 5.0 0.00 0.00 0.00 37 1011.4
20260504171119 70 55 1.0 3.0 0.00 0.00 0.00 38 1011.5
20260504170615 71 153 2.0 5.0 0.00 0.00 0.00 38 1011.6
20260504170113 70 246 0.0 2.0 0.00 0.00 0.00 38 1011.8